Location: Bacea
(45.9500°N, 22.6667°E)
Time: 11:59:07
(UTC+00:00)

Cosmos 2263 Rocket - Pass Details

Date: 01 June 2022
Orbit: 825 x 847 km, 71.0° (Epoch: 30 June)

Event Time Altitude Azimuth Distance (km) Brightness Sun altitude
Rises 19:59:27 0° 320° (NW) 3,376 7.3 -14.1°
Reaches altitude 10° 20:02:32 10° 304° (NW) 2,435 5.7 -14.4°
Maximum altitude 20:06:21 19° 260° (W) 1,859 4.3 -14.8°
Drops below altitude 10° 20:10:10 10° 216° (SW) 2,420 4.4 -15.2°
Enters shadow 20:12:09 - 204° (SSW) 3,000 4.7 -15.3°
